Location: Emblem
(62.4273°N, 6.4710°E)
Time: 11:00:10
(UTC+01:00)

Transit 2A - All Passes

Search period start: 31 January 2023 00:00
Search period end: 10 February 2023 00:00
Orbit: 594 x 962 km, 66.7° (Epoch: 30 January)

Date Brightness Start Highest point End Pass type
(mag) Time Alt. Az. Time Alt. Az. Time Alt. Az.
31 Jan - 00:54:26 10° WNW 01:00:09 80° NNE 01:06:22 10° ESE night (unlit)
31 Jan - 02:37:41 10° WNW 02:43:17 48° SW 02:49:14 10° SSE night (unlit)
31 Jan - 04:21:46 10° WNW 04:25:25 17° WSW 04:29:11 10° SW night (unlit)
31 Jan - 17:30:29 10° SE 17:33:05 14° ESE 17:35:46 10° ENE visible
31 Jan - 19:10:05 10° SSW 19:14:56 46° SE 19:20:19 10° ENE visible
31 Jan - 20:52:42 10° WSW 20:57:58 77° NNW 21:03:50 10° ENE visible
31 Jan - 22:36:21 10° W 22:41:44 57° N 22:47:40 10° ENE visible
01 Feb - 00:19:53 10° WNW 00:25:34 72° NNE 00:31:45 10° ESE visible
01 Feb - 02:03:09 10° WNW 02:08:51 58° SW 02:14:58 10° SSE night (unlit)
01 Feb - 03:46:52 10° WNW 03:51:12 21° WSW 03:55:43 10° SSW night (unlit)
01 Feb - 16:58:02 10° ESE 16:58:57 10° E 16:59:54 10° E daylight
01 Feb - 18:35:55 10° S 18:40:34 37° SE 18:45:43 10° ENE visible
01 Feb - 20:18:10 10° WSW 20:23:24 87° NNW 20:29:15 10° ENE visible
01 Feb - 22:01:43 10° W 22:07:05 58° N 22:13:00 10° ENE visible
01 Feb - 23:45:20 10° WNW 23:50:58 66° NNE 23:57:06 10° ESE visible
02 Feb - 01:28:36 10° WNW 01:34:23 68° SW 01:40:35 10° SE night (unlit)
02 Feb - 03:12:07 10° WNW 03:16:57 26° WSW 03:21:59 10° S night (unlit)
02 Feb - 18:01:52 10° S 18:06:16 30° ESE 18:11:04 10° ENE visible
02 Feb - 19:43:40 10° SW 19:48:52 82° SE 19:54:41 10° ENE visible
02 Feb - 21:27:05 10° W 21:32:26 60° N 21:38:21 10° ENE visible
02 Feb - 23:10:45 10° WNW 23:16:19 62° NNE 23:22:25 10° E visible
03 Feb - 00:54:05 10° WNW 00:59:52 79° SW 01:06:08 10° SE visible
03 Feb - 02:37:26 10° WNW 02:42:38 32° WSW 02:48:05 10° S night (unlit)
03 Feb - 17:27:57 10° SSE 17:32:00 24° ESE 17:36:23 10° ENE visible
03 Feb - 19:09:14 10° SW 19:14:22 70° SE 19:20:08 10° ENE visible
03 Feb - 20:52:27 10° W 20:57:47 64° NNW 21:03:43 10° ENE visible
03 Feb - 22:36:09 10° WNW 22:41:41 59° N 22:47:44 10° E visible
04 Feb - 00:19:32 10° WNW 00:25:21 90° SSW 00:31:37 10° SE visible
04 Feb - 02:02:51 10° WNW 02:08:17 39° SW 02:14:02 10° S night (unlit)
04 Feb - 03:47:40 10° W 03:50:10 13° WSW 03:52:43 10° SW night (unlit)
04 Feb - 16:54:15 10° SSE 16:57:47 19° ESE 17:01:34 10° ENE daylight
04 Feb - 18:34:52 10° SSW 18:39:55 58° SE 18:45:34 10° ENE visible
04 Feb - 20:17:50 10° WSW 20:23:09 69° NNW 20:29:06 10° ENE visible
04 Feb - 22:01:32 10° WNW 22:07:01 57° N 22:13:03 10° E visible
04 Feb - 23:45:01 10° WNW 23:50:47 81° NNE 23:57:03 10° ESE visible
05 Feb - 01:28:16 10° WNW 01:33:54 47° SW 01:39:53 10° SSE visible
05 Feb - 03:12:23 10° WNW 03:16:00 16° WSW 03:19:43 10° SW night (unlit)
05 Feb - 16:20:48 10° SE 16:23:36 15° ESE 16:26:33 10° ENE daylight
05 Feb - 18:00:35 10° SSW 18:05:29 48° SE 18:10:59 10° ENE visible
05 Feb - 19:43:14 10° WSW 19:48:33 76° NNW 19:54:30 10° ENE visible
05 Feb - 21:26:54 10° W 21:32:21 57° N 21:38:21 10° ENE visible
05 Feb - 23:10:27 10° WNW 23:16:11 73° NNE 23:22:26 10° ESE visible
06 Feb - 00:53:42 10° WNW 00:59:28 57° SW 01:05:35 10° SSE visible
06 Feb - 02:37:28 10° WNW 02:41:47 21° WSW 02:46:16 10° SSW night (unlit)
06 Feb - 15:48:02 10° ESE 15:49:29 11° E 15:50:58 10° E daylight
06 Feb - 17:26:23 10° SSW 17:31:08 39° SE 17:36:22 10° ENE visible
06 Feb - 19:08:41 10° WSW 19:13:59 86° NNW 19:19:55 10° ENE visible
06 Feb - 20:52:15 10° W 20:57:42 58° N 21:03:40 10° ENE visible
06 Feb - 22:35:52 10° WNW 22:41:34 67° NNE 22:47:46 10° ESE visible
07 Feb - 00:19:10 10° WNW 00:24:59 67° SW 00:31:13 10° SE visible
07 Feb - 02:02:42 10° WNW 02:07:31 26° WSW 02:12:33 10° S night (unlit)
07 Feb - 16:52:18 10° S 16:56:48 31° ESE 17:01:44 10° ENE daylight
07 Feb - 18:34:11 10° SW 18:39:26 83° SE 18:45:20 10° ENE visible
07 Feb - 20:17:37 10° W 20:23:01 60° N 20:29:00 10° ENE visible
07 Feb - 22:01:17 10° WNW 22:06:56 63° NNE 22:13:05 10° E visible
07 Feb - 23:44:37 10° WNW 23:50:29 78° SW 23:56:46 10° SE visible
08 Feb - 01:28:01 10° WNW 01:33:13 32° WSW 01:38:39 10° S visible
08 Feb - 16:18:22 10° S 16:22:31 25° ESE 16:27:02 10° ENE daylight
08 Feb - 17:59:43 10° SW 18:04:56 72° SE 18:10:46 10° ENE visible
08 Feb - 19:42:58 10° W 19:48:22 63° NNW 19:54:22 10° ENE visible
08 Feb - 21:26:41 10° WNW 21:32:17 59° N 21:38:23 10° E visible
08 Feb - 23:10:05 10° WNW 23:15:57 88° SSW 23:22:15 10° SE visible
09 Feb - 00:53:23 10° WNW 00:58:52 38° SW 01:04:36 10° S visible
09 Feb - 02:38:19 10° W 02:40:43 12° WSW 02:43:09 10° SW night (unlit)
09 Feb - 15:44:37 10° SSE 15:48:18 20° ESE 15:52:14 10° ENE daylight
09 Feb - 17:25:20 10° SSW 17:30:28 60° SE 17:36:11 10° ENE daylight
09 Feb - 19:08:21 10° WSW 19:13:44 69° NNW 19:19:43 10° ENE visible
09 Feb - 20:52:03 10° WNW 20:57:37 58° N 21:03:41 10° E visible
09 Feb - 22:35:32 10° WNW 22:41:22 82° NNE 22:47:40 10° ESE visible
